Weather in Sebyan-Kyuyel'

Russia / Sakha (Yakutia) Republic     65°17′17″N   130°00′30″E
temp.,
°C
wind,
m/s
gust,
m/s
humid.,
%
clouds,
%
prec.,
mm/h
press.,
hPa
HPBL,
m
16 april, fri
fri1600:00−22sw3297100 0.0 101013
03:00−20sw339797 0.0 100821
06:00−18sw339550 0.0 100848
09:00−14sw34837 0.0 1006161
12:00−10sw587455 0.0 1003808
15:00−9ssw8117683 0.1 10021308
18:00−12sse3487100 0.1 100152
21:00−18s2297100 0.1 100212
17 april, sat
sat1700:00−17sse2296100 0.0 99713
03:00−15sse2296100 0.1 99123
06:00−13s3695100 0.3 988162
09:00−9ssw10158382 0.8 9861518
12:00−10wsw10187223 0.1 9871840
15:00−9sw10147723 0.3 9881650
18:00−12sw5108688 0.0 990352
21:00−20ssw44916 0.1 99625
18 april, sun
sun1800:00−21sw449867 0.0 99728
03:00−22ssw4410057 0.0 99929
06:00−22sw449980 0.0 100142
09:00−16sw5108199 0.0 1001843
12:00−14sw101375100 0.0 10031118
15:00−14sw9137993 0.1 10061356
18:00−15sw9148221 0.1 1009842
21:00−17sw6138957 0.1 1013265
19 april, mon
mon1900:00−23sw449870 0.0 101832
03:00−23sw3399100 0.1 102128
06:00−21sw4496100 0.0 102366
09:00−16sw498243 0.0 1023632
12:00−14wsw787099 0.0 10231109
15:00−13wsw7869100 0.1 10231248
18:00−14wsw478239 0.0 1025165
21:00−24sw339476 0.0 103212
20 april, tue
tue2000:00−28wsw22100100 0.0 10349
03:00−27w22100100 0.0 10339
06:00−23nw1196100 0.0 102916
09:00−15nne2383100 0.0 1024274
12:00−13ne3583100 0.1 1021794
15:00−13ne3489100 0.5 1019697
18:00−13ne2393100 0.5 1019412
21:00−17ene1110088 0.8 10209